User: anonymous   Login
Location: B
(0.0000°N, 0.0000°E)
Time: 22:27:26
(UTC+02:00)
Language:

Cosmos 1025 Rocket - Orbit

View from above orbital plane
View from above orbital plane
View from above satellite
View from above satellite

Ground track
Ground track

The orbit data is extracted from the following two-line orbital elements,

1 10974U 78067B   16180.39430430  .00000118  00000-0  10331-4 0  9993
2 10974  82.4823 144.2527 0019026  76.9677 283.3662 14.87163661 54973
Epoch (UTC): 28 June 2016 09:27:47
Eccentricity: 0.0019026
inclination: 82.4823°
perigee height: 593 km
apogee height: 620 km
right ascension of ascending node: 144.2527°
argument of perigee: 76.9677°
revolutions per day: 14.87163661
mean anomaly at epoch: 283.3662°
orbit number at epoch: 5497

The dashed part of the orbit path shows where the satellite is in the earth's shadow,  

DLR